Tracking 27188 objects as of 1-Apr-2023
HD Live streaming from Space Station
objects crossing your sky now

BREEZE-M R/B

Track BREEZE-M R/B now!


NORAD ID: 37186
Int'l Code: 2010-053B
Perigee: 3,487.3 km
Apogee: 34,167.3 km
Inclination: 21.4 °
Period: 663.5 minutes
Semi major axis: 25198 km
RCS: 7.5201 m2 (large)
Launch date: October 14, 2010
Source: Commonwealth of Independent States (former USSR) (CIS)
Launch site: TYURATAM MISSILE AND SPACE COMPLEX (TTMTR)

Note: This is a ROCKET BODY
Your satellite tracking list
Your tracking list is empty




NASA's NSSDC Master Catalog

Two Line Element Set (TLE):
1 37186U 10053B   23089.31269163  .00000024  00000-0  00000-0 0  9993
2 37186  21.3865 163.1275 6087704 101.2452 330.9297  2.17042601 98748
Source of the keplerian elements: AFSPC